TimePDT,TemperatureF,Dew PointF,Humidity,Sea Level PressureIn,VisibilityMPH,Wind Direction,Wind SpeedMPH,Gust SpeedMPH,PrecipitationIn,Events,Conditions,WindDirDegrees,DateUTC
12:51 AM,55.9,42.1,60,30.08,7.0,Calm,Calm,-,N/A,,Clear,0,2013-05-03 07:51:00
1:51 AM,55.9,41.0,57,30.07,7.0,Calm,Calm,-,N/A,,Clear,0,2013-05-03 08:51:00
2:51 AM,55.9,41.0,57,30.04,7.0,Calm,Calm,-,N/A,,Clear,0,2013-05-03 09:51:00
3:51 AM,53.1,39.9,61,30.03,7.0,Calm,Calm,-,N/A,,Clear,0,2013-05-03 10:51:00
4:51 AM,50.0,42.1,74,30.01,7.0,Calm,Calm,-,N/A,,Clear,0,2013-05-03 11:51:00
5:51 AM,52.0,42.1,69,29.99,6.0,Calm,Calm,-,N/A,,Haze,0,2013-05-03 12:51:00
6:51 AM,54.0,42.1,64,30.00,10.0,Calm,Calm,-,N/A,,Clear,0,2013-05-03 13:51:00
7:51 AM,62.1,39.9,44,30.00,5.0,Calm,Calm,-,N/A,,Haze,0,2013-05-03 14:51:00
8:51 AM,72.0,37.0,28,29.97,5.0,Calm,Calm,-,N/A,,Haze,0,2013-05-03 15:51:00
9:51 AM,81.0,39.0,22,29.95,5.0,Variable,3.5,-,N/A,,Haze,0,2013-05-03 16:51:00
10:51 AM,91.0,37.9,15,29.92,9.0,NW,11.5,-,N/A,,Clear,320,2013-05-03 17:51:00
11:51 AM,93.0,37.0,14,29.91,9.0,NW,16.1,-,N/A,,Clear,310,2013-05-03 18:51:00
12:51 PM,93.0,35.1,13,29.88,8.0,WNW,18.4,-,N/A,,Clear,300,2013-05-03 19:51:00
1:51 PM,84.0,44.1,25,29.86,4.0,NW,24.2,29.9,N/A,,Haze,310,2013-05-03 20:51:00
2:51 PM,81.0,42.1,25,29.85,7.0,NW,27.6,32.2,N/A,,Clear,310,2013-05-03 21:51:00
3:51 PM,80.1,41.0,25,29.83,7.0,WNW,20.7,27.6,N/A,,Clear,300,2013-05-03 22:51:00
4:51 PM,79.0,41.0,26,29.84,5.0,WNW,9.2,-,N/A,,Haze,290,2013-05-03 23:51:00
5:51 PM,75.0,42.1,31,29.83,5.0,WNW,13.8,-,N/A,,Haze,300,2013-05-04 00:51:00
6:51 PM,73.0,37.9,28,29.83,5.0,NW,8.1,-,N/A,,Haze,320,2013-05-04 01:51:00
7:51 PM,66.0,37.9,36,29.84,5.0,NNW,5.8,-,N/A,,Haze,340,2013-05-04 02:51:00
8:51 PM,62.1,41.0,46,29.85,6.0,NNW,3.5,-,N/A,,Haze,330,2013-05-04 03:51:00
9:51 PM,60.1,44.1,55,29.86,6.0,Calm,Calm,-,N/A,,Haze,0,2013-05-04 04:51:00
10:51 PM,57.9,46.0,65,29.85,5.0,North,4.6,-,N/A,,Haze,360,2013-05-04 05:51:00
11:51 PM,57.0,46.0,67,29.83,5.0,Calm,Calm,-,N/A,,Haze,0,2013-05-04 06:51:00